When you browse on this site, cookies collect data to enhance your experience and personalize the content and advertising you see.
Visit our Privacy Policy to learn more. By continuing to use the site, you agree to this use of cookies and data.
  • In United Kingdom
  • List of Countries
  • For 7 days
  • Water Temperature
  • Satellite Maps
  • Weather Map
  • Weather Widgets
  • user-avatar
    Login

    Hourly Weather Mostar

    Today, 23 January, Wednesday

    Time Temperature Precipitation Wind Pressure Humidity
    00:00 +6°C° 0.4 mm 2 mps 744 mmHg 91%
    01:00 +7°C° 0 mm 2 mps 743 mmHg 95%
    02:00 +7°C° 0.8 mm 2 mps 743 mmHg 94%
    03:00 +7°C° 0.8 mm 3 mps 743 mmHg 93%
    04:00 +7°C° 0.8 mm 3 mps 743 mmHg 92%
    05:00 +5°C° 0.8 mm 3 mps 742 mmHg 91%
    06:00 +5°C° 0.8 mm 3 mps 742 mmHg 90%
    07:00 +6°C° 0 mm 2 mps 742 mmHg 90%
    08:00 +7°C° 0.8 mm 3 mps 742 mmHg 87%
    09:00 +7°C° 0.8 mm 3 mps 742 mmHg 85%
    10:00 +8°C° 0.8 mm 3 mps 742 mmHg 82%
    11:00 +8°C° 0.8 mm 3 mps 741 mmHg 81%
    12:00 +8°C° 0.8 mm 3 mps 741 mmHg 81%
    13:00 +8°C° 0.8 mm 3 mps 741 mmHg 80%
    14:00 +8°C° 0.3 mm 2 mps 740 mmHg 80%
    15:00 +8°C° 0.3 mm 2 mps 740 mmHg 81%
    16:00 +8°C° 0.3 mm 2 mps 740 mmHg 82%
    17:00 +7°C° 0 mm 2 mps 740 mmHg 83%
    18:00 +6°C° 0 mm 2 mps 740 mmHg 83%
    19:00 +5°C° 0 mm 2 mps 740 mmHg 84%
    20:00 +5°C° 0 mm 2 mps 740 mmHg 84%
    21:00 +5°C° 0 mm 2 mps 740 mmHg 83%
    22:00 +4°C° 0 mm 2 mps 740 mmHg 83%
    23:00 +4°C° 0 mm 2 mps 740 mmHg 82%

    Tomorrow, 24 January, Thursday

    Time Temperature Precipitation Wind Pressure Humidity
    00:00 +4°C° 0 mm 2 mps 739 mmHg 81%
    01:00 +3°C° 0 mm 2 mps 739 mmHg 80%
    02:00 +3°C° 0 mm 2 mps 739 mmHg 80%
    03:00 +3°C° 0 mm 2 mps 739 mmHg 79%
    04:00 +2°C° 0 mm 3 mps 739 mmHg 79%
    05:00 +2°C° 0 mm 3 mps 739 mmHg 79%
    06:00 +2°C° 0 mm 3 mps 739 mmHg 79%
    07:00 +1°C° 0 mm 3 mps 739 mmHg 80%
    08:00 +3°C° 0 mm 3 mps 740 mmHg 78%
    09:00 +4°C° 0 mm 3 mps 740 mmHg 75%
    10:00 +5°C° 0 mm 3 mps 740 mmHg 73%
    11:00 +7°C° 0 mm 3 mps 740 mmHg 71%
    12:00 +7°C° 0 mm 3 mps 740 mmHg 70%
    13:00 +8°C° 0 mm 3 mps 740 mmHg 68%
    14:00 +8°C° 0 mm 3 mps 740 mmHg 69%
    15:00 +7°C° 0 mm 3 mps 740 mmHg 71%
    16:00 +7°C° 0 mm 3 mps 741 mmHg 72%
    17:00 +5°C° 0 mm 3 mps 741 mmHg 74%
    18:00 +4°C° 0 mm 3 mps 741 mmHg 75%
    19:00 +3°C° 0 mm 3 mps 741 mmHg 76%
    20:00 +1°C° 0 mm 4 mps 741 mmHg 75%
    21:00 +1°C° 0 mm 4 mps 741 mmHg 74%
    22:00 +1°C° 0 mm 4 mps 741 mmHg 73%
    23:00 +1°C° 0 mm 4 mps 741 mmHg 72%

    Day after tomorrow, 25 January, Friday

    Time Temperature Precipitation Wind Pressure Humidity
    00:00 +2°C° 0 mm 5 mps 741 mmHg 70%
    01:00 +2°C° 0 mm 5 mps 741 mmHg 68%
    02:00 +2°C° 0 mm 5 mps 741 mmHg 68%
    03:00 +2°C° 0 mm 5 mps 741 mmHg 68%
    04:00 +1°C° 0 mm 5 mps 741 mmHg 68%
    05:00 +1°C° 0 mm 4 mps 741 mmHg 69%
    06:00 +1°C° 0 mm 4 mps 741 mmHg 69%
    07:00 +1°C° 0 mm 4 mps 742 mmHg 70%
    08:00 +1°C° 0 mm 4 mps 742 mmHg 67%
    09:00 +3°C° 0 mm 4 mps 742 mmHg 65%
    10:00 +4°C° 0 mm 4 mps 743 mmHg 62%
    11:00 +4°C° 0 mm 4 mps 743 mmHg 61%
    12:00 +5°C° 0 mm 4 mps 743 mmHg 61%
    13:00 +5°C° 0 mm 4 mps 743 mmHg 60%
    14:00 +4°C° 0 mm 4 mps 743 mmHg 62%
    15:00 +4°C° 0 mm 4 mps 743 mmHg 63%
    16:00 +4°C° 0 mm 4 mps 743 mmHg 64%
    17:00 +3°C° 0 mm 4 mps 744 mmHg 65%
    18:00 +1°C° 0 mm 4 mps 744 mmHg 65%
    19:00 +1°C° 0 mm 4 mps 745 mmHg 66%
    20:00 +1°C° 0 mm 4 mps 745 mmHg 65%
    21:00 0°C° 0 mm 4 mps 745 mmHg 65%
    22:00 0°C° 0 mm 4 mps 746 mmHg 64%
    23:00 0°C° 0 mm 4 mps 746 mmHg 64%

    26 January, Saturday

    Time Temperature Precipitation Wind Pressure Humidity
    00:00 0°C° 0 mm 4 mps 746 mmHg 64%
    01:00 0°C° 0 mm 4 mps 746 mmHg 63%
    02:00 0°C° 0 mm 4 mps 746 mmHg 63%
    03:00 +1°C° 0 mm 4 mps 746 mmHg 62%
    04:00 +1°C° 0 mm 4 mps 746 mmHg 62%
    05:00 0°C° 0 mm 4 mps 747 mmHg 62%
    06:00 0°C° 0 mm 4 mps 747 mmHg 62%
    07:00 0°C° 0 mm 4 mps 748 mmHg 62%
    08:00 +1°C° 0 mm 4 mps 748 mmHg 60%
    09:00 +3°C° 0 mm 4 mps 748 mmHg 58%
    10:00 +4°C° 0 mm 4 mps 748 mmHg 56%
    11:00 +4°C° 0 mm 4 mps 748 mmHg 55%
    12:00 +5°C° 0 mm 4 mps 748 mmHg 55%
    13:00 +5°C° 0 mm 4 mps 748 mmHg 55%
    14:00 +5°C° 0 mm 4 mps 748 mmHg 57%
    15:00 +4°C° 0 mm 4 mps 748 mmHg 59%
    16:00 +4°C° 0 mm 3 mps 748 mmHg 62%
    17:00 +3°C° 0 mm 3 mps 749 mmHg 63%
    18:00 +2°C° 0 mm 3 mps 749 mmHg 65%
    19:00 +1°C° 0 mm 3 mps 749 mmHg 66%
    20:00 +1°C° 0 mm 3 mps 749 mmHg 67%
    21:00 0°C° 0 mm 3 mps 749 mmHg 68%
    22:00 0°C° 0 mm 3 mps 749 mmHg 69%
    23:00 0°C° 0 mm 3 mps 749 mmHg 69%

    27 January, Sunday

    Time Temperature Precipitation Wind Pressure Humidity
    00:00 +1°C° 0 mm 2 mps 749 mmHg 70%
    01:00 +1°C° 0 mm 2 mps 749 mmHg 70%
    02:00 +1°C° 0 mm 2 mps 748 mmHg 70%
    03:00 +1°C° 0 mm 2 mps 748 mmHg 69%
    04:00 +1°C° 0 mm 2 mps 748 mmHg 69%
    05:00 +1°C° 0 mm 2 mps 747 mmHg 68%
    06:00 +1°C° 0 mm 2 mps 747 mmHg 67%
    07:00 +1°C° 0 mm 2 mps 747 mmHg 66%
    08:00 +4°C° 0 mm 1 mps 747 mmHg 63%
    09:00 +5°C° 0 mm 1 mps 746 mmHg 59%
    10:00 +7°C° 0 mm 1 mps 746 mmHg 55%
    11:00 +7°C° 0 mm 1 mps 746 mmHg 56%
    12:00 +8°C° 0 mm 1 mps 745 mmHg 57%
    13:00 +8°C° 0 mm 2 mps 745 mmHg 58%
    14:00 +7°C° 0 mm 2 mps 745 mmHg 63%
    15:00 +7°C° 0 mm 2 mps 745 mmHg 68%
    16:00 +7°C° 0 mm 2 mps 745 mmHg 74%
    17:00 +6°C° 0 mm 2 mps 745 mmHg 77%
    18:00 +5°C° 0 mm 3 mps 745 mmHg 80%
    19:00 +4°C° 0 mm 3 mps 746 mmHg 83%
    20:00 +4°C° 0 mm 3 mps 746 mmHg 83%
    21:00 +4°C° 0 mm 3 mps 746 mmHg 83%
    22:00 +4°C° 0 mm 4 mps 746 mmHg 83%
    23:00 +4°C° 0.5 mm 4 mps 746 mmHg 82%

    28 January, Monday

    Time Temperature Precipitation Wind Pressure Humidity
    00:00 +4°C° 0.5 mm 4 mps 746 mmHg 82%
    01:00 +4°C° 0.5 mm 4 mps 746 mmHg 81%
    02:00 +3°C° 1 mm 5 mps 745 mmHg 82%
    03:00 +3°C° 1 mm 5 mps 745 mmHg 82%
    04:00 +3°C° 1 mm 5 mps 745 mmHg 83%
    05:00 +3°C° 0.6 mm 5 mps 745 mmHg 83%
    06:00 +3°C° 0.6 mm 5 mps 745 mmHg 82%
    07:00 +5°C° 0.6 mm 5 mps 745 mmHg 82%
    08:00 +5°C° 0.2 mm 5 mps 745 mmHg 80%
    09:00 +6°C° 0.2 mm 5 mps 745 mmHg 79%
    10:00 +7°C° 0.2 mm 5 mps 745 mmHg 78%
    11:00 +7°C° 1.1 mm 4 mps 744 mmHg 80%
    12:00 +7°C° 1.1 mm 4 mps 744 mmHg 81%
    13:00 +6°C° 1.1 mm 4 mps 743 mmHg 83%
    14:00 +6°C° 0.9 mm 4 mps 743 mmHg 85%
    15:00 +6°C° 0.9 mm 5 mps 743 mmHg 86%
    16:00 +6°C° 0.9 mm 5 mps 744 mmHg 88%
    17:00 +6°C° 0.3 mm 4 mps 744 mmHg 88%
    18:00 +7°C° 0.3 mm 3 mps 744 mmHg 89%
    19:00 +7°C° 0.3 mm 2 mps 744 mmHg 89%
    20:00 +6°C° 1 mm 2 mps 744 mmHg 89%
    21:00 +5°C° 1 mm 3 mps 744 mmHg 88%
    22:00 +5°C° 1 mm 3 mps 744 mmHg 88%
    23:00 +5°C° 1.5 mm 3 mps 744 mmHg 88%
    Show more